Tracking 30692 objects as of 16-Jun-2025
HD Live streaming from Space Station
objects crossing your sky now

NAVSTAR 69 (USA 248)

Track NAVSTAR 69 (USA 248) now!
NAVSTAR 69 (USA 248) is classified as:


NORAD ID: 39533
Int'l Code: 2014-008A
Perigee: 19,980.2 km
Apogee: 20,398.5 km
Inclination: 53.6 °
Period: 718.0 minutes
Semi major axis: 26560 km
RCS: Unknown
Launch date: February 21, 2014
Source: United States (US)
Launch site: AIR FORCE EASTERN TEST RANGE (AFETR)
PRN: 30

USA 248, known also as GPS 2F-5 will become a primary broadcasting satellite in the constellation when it becomes operational by May 2014.
Your satellite tracking list
Your tracking list is empty




NASA's NSSDC Master Catalog

Two Line Element Set (TLE):
1 39533U 14008A   25166.72823776  .00000089  00000-0  00000-0 0  9995
2 39533  53.6168 164.2616 0078753 225.8878 133.4669  2.00563535 82337
Source of the keplerian elements: AFSPC